Christchurch, New Zealand

3:04 PM NZDT on January 22, 2017 (GMT +1300)
Christchurch

Weather History for NZCH - January, 2013

Change the Weather History Date:

Wednesday, January 2, 2013

  Actual Average Record
Temperature  
Mean Temperature 68 °F -  
Max Temperature 78 °F 68 °F 87 °F (2002)
Min Temperature 59 °F 50 °F 46 °F (2001)
Cooling Degree Days 4    
Growing Degree Days 18 (Base 50)    
Moisture  
Dew Point 50 °F    
Average Humidity 52    
Maximum Humidity 94    
Minimum Humidity 33    
Precipitation  
Precipitation 0.00 in - - ()
Sea Level Pressure  
Sea Level Pressure 29.39 in    
Wind  
Wind Speed 11 mph ()    
Max Wind Speed 26 mph    
Max Gust Speed 39 mph    
Visibility 6.2 miles    
Events Rain    
Averages and records for this station are not official NWS values.
T = Trace of Precipitation, MM = Missing Value Source: Averaged Metar Reports

Daily Weather History Graph

Daily Weather History Graph

Search for Another Location

Airport or City:

Trip Planner

Search our weather history database for the weather conditions in past years. The results will help you decide how hot, cold, wet, or windy it might be!

Date:

Astronomy

Jan. 02, 2013 Rise Set
Actual Time 5:53 AM NZDT 9:13 PM NZDT
Civil Twilight 5:17 AM NZDT 9:49 PM NZDT
Nautical Twilight 4:31 AM NZDT 10:35 PM NZDT
Astronomical Twilight 3:34 AM NZDT 11:32 PM NZDT
Moon 11:29 PM NZDT (1/2) 10:28 AM NZDT (1/2)
Length of Visible Light 16h 31m
Length of Day
15h 20m
Waning Gibbous, 81% of the Moon is Illuminated
Jan 2
Waning Gibbous
Jan 5
Last Quarter
Jan 12
New
Jan 19
First Quarter
Jan 27
Full

Hourly Weather History & Observations

Time (NZDT) Temp. Dew Point Humidity Pressure Visibility Wind Dir Wind Speed Gust Speed Precip Events Conditions
12:00 AM 73.4 °F 42.8 °F 33% 29.53 in - NNW 10.4 mph - N/A   Clear
1:00 AM 64.4 °F 46.4 °F 52% 29.53 in - NE 8.1 mph - N/A   Clear
2:00 AM 66.2 °F 48.2 °F 52% 29.47 in - ENE 10.4 mph - N/A   Clear
3:00 AM 73.4 °F 46.4 °F 38% 29.47 in - NNW 19.6 mph - N/A   Clear
4:00 AM 73.4 °F 46.4 °F 38% 29.47 in - North 11.5 mph - N/A   Clear
5:00 AM 71.6 °F 46.4 °F 41% 29.47 in - North 5.8 mph - N/A   Clear
6:00 AM 73.4 °F 44.6 °F 36% 29.44 in 6.2 mi NNW 15.0 mph - N/A   Partly Cloudy
7:00 AM 71.6 °F 46.4 °F 41% 29.42 in - NE 10.4 mph - N/A   Clear
8:00 AM 71.6 °F 46.4 °F 41% 29.44 in - ENE 11.5 mph - N/A   Clear
9:00 AM 73.4 °F 46.4 °F 38% 29.44 in - NNE 11.5 mph 27.6 mph N/A   Clear
10:00 AM 73.4 °F 51.8 °F 47% 29.44 in 6.2 mi NW 5.8 mph - N/A   Scattered Clouds
11:00 AM 78.8 °F 50.0 °F 36% 29.42 in - WNW 10.4 mph - N/A   Clear
12:00 PM 78.8 °F 48.2 °F 34% 29.39 in - WNW 5.8 mph - N/A   Clear
1:00 PM 77.0 °F 46.4 °F 34% 29.42 in - NW 26.5 mph 39.1 mph N/A   Clear
2:00 PM 66.2 °F 57.2 °F 73% 29.42 in 6.2 mi NNW 13.8 mph - N/A Rain Light Rain Showers
3:00 PM 71.6 °F 57.2 °F 60% 29.39 in 6.2 mi North 10.4 mph - N/A   Partly Cloudy
4:00 PM 78.8 °F 51.8 °F 39% 29.33 in 6.2 mi NNW 15.0 mph 26.5 mph N/A   Partly Cloudy
5:00 PM 75.2 °F 50.0 °F 41% 29.33 in 6.2 mi NNW 23.0 mph 35.7 mph N/A   Partly Cloudy
6:00 PM 73.4 °F 48.2 °F 41% 29.30 in 6.2 mi NW 18.4 mph - N/A   Partly Cloudy
7:00 PM 64.4 °F 53.6 °F 68% 29.33 in 6.2 mi NNW 16.1 mph 27.6 mph N/A Rain Light Rain
8:00 PM 59.0 °F 55.4 °F 88% 29.27 in 6.2 mi North 13.8 mph - N/A   Partly Cloudy
9:00 PM 60.8 °F 57.2 °F 88% 29.24 in - North 13.8 mph - N/A   Clear
10:00 PM 60.8 °F 57.2 °F 88% 29.24 in - North 6.9 mph - N/A   Clear
11:00 PM 59.0 °F 57.2 °F 94% 29.24 in 6.2 mi NW 5.8 mph - N/A Rain Light Rain